| time (UTC) | temp F | wind direction | speed MPH | gust MPH | rain 1hr in | rain 24hr in | rain mn in | humidity % | barometer mb |
| 20260510200041 | 62 | 279 | 8.0 | 16.0 | 0.00 | 0.13 | 0.02 | 64 | 1010.7 |
| 20260510195530 | 61 | 255 | 5.0 | 16.0 | 0.00 | 0.20 | 0.02 | 66 | 1010.7 |
| 20260510195033 | 61 | 283 | 8.0 | 16.0 | 0.00 | 0.20 | 0.02 | 65 | 1010.8 |
| 20260510194542 | 61 | 302 | 7.0 | 16.0 | 0.00 | 0.20 | 0.02 | 67 | 1010.9 |
| 20260510194029 | 62 | 275 | 6.0 | 15.0 | 0.00 | 0.20 | 0.02 | 69 | 1010.9 |
| 20260510193530 | 62 | 312 | 5.0 | 16.0 | 0.00 | 0.20 | 0.02 | 68 | 1010.9 |
| 20260510193045 | 62 | 224 | 6.0 | 17.0 | 0.00 | 0.20 | 0.02 | 69 | 1010.9 |
| 20260510192529 | 61 | 259 | 5.0 | 17.0 | 0.00 | 0.20 | 0.02 | 70 | 1010.9 |
| 20260510192030 | 61 | 263 | 8.0 | 17.0 | 0.00 | 0.20 | 0.02 | 70 | 1010.9 |
| 20260510191541 | 62 | 285 | 6.0 | 17.0 | 0.00 | 0.20 | 0.02 | 70 | 1011.0 |
| 20260510191027 | 61 | 323 | 7.0 | 17.0 | 0.00 | 0.20 | 0.02 | 71 | 1010.9 |
| 20260510190530 | 62 | 263 | 6.0 | 16.0 | 0.00 | 0.20 | 0.02 | 68 | 1010.9 |
| 20260510190049 | 62 | 257 | 6.0 | 16.0 | 0.00 | 0.20 | 0.02 | 71 | 1010.9 |
| 20260510185529 | 62 | 282 | 5.0 | 13.0 | 0.00 | 0.30 | 0.02 | 73 | 1010.9 |
| 20260510185030 | 62 | 238 | 7.0 | 16.0 | 0.00 | 0.30 | 0.02 | 74 | 1010.8 |
| 20260510184539 | 61 | 236 | 5.0 | 16.0 | 0.00 | 0.30 | 0.02 | 76 | 1010.9 |
| 20260510184030 | 60 | 236 | 5.0 | 12.0 | 0.00 | 0.30 | 0.02 | 78 | 1010.9 |
| 20260510183533 | 60 | 242 | 5.0 | 15.0 | 0.00 | 0.30 | 0.02 | 77 | 1010.9 |
| 20260510183041 | 60 | 260 | 6.0 | 15.0 | 0.00 | 0.30 | 0.02 | 77 | 1011.1 |
| 20260510182529 | 60 | 168 | 3.0 | 12.0 | 0.00 | 0.30 | 0.02 | 81 | 1011.0 |
| 20260510182029 | 59 | 5 | 5.0 | 12.0 | 0.00 | 0.30 | 0.02 | 82 | 1011.0 |
| 20260510181545 | 59 | 278 | 4.0 | 10.0 | 0.00 | 0.30 | 0.02 | 82 | 1011.1 |
| 20260510181029 | 59 | 177 | 2.0 | 6.0 | 0.00 | 0.30 | 0.02 | 84 | 1011.0 |
| 20260510180530 | 58 | 240 | 2.0 | 8.0 | 0.00 | 0.30 | 0.02 | 87 | 1011.0 |
| 20260510180052 | 57 | 268 | 2.0 | 8.0 | 0.01 | 0.30 | 0.02 | 87 | 1011.1 |
| 20260510175529 | 57 | 255 | 2.0 | 14.0 | 0.01 | 0.39 | 0.02 | 87 | 1011.1 |
| 20260510175026 | 57 | 275 | 3.0 | 14.0 | 0.01 | 0.39 | 0.02 | 86 | 1011.2 |
| 20260510174534 | 57 | 280 | 3.0 | 14.0 | 0.01 | 0.39 | 0.02 | 86 | 1011.2 |
| 20260510174030 | 57 | 265 | 2.0 | 6.0 | 0.01 | 0.39 | 0.02 | 85 | 1011.0 |
| 20260510173533 | 57 | 243 | 2.0 | 6.0 | 0.01 | 0.39 | 0.02 | 88 | 1010.9 |
| 20260510173047 | 57 | 267 | 1.0 | 7.0 | 0.01 | 0.39 | 0.02 | 88 | 1010.9 |
| 20260510172527 | 57 | 0 | 2.0 | 7.0 | 0.01 | 0.39 | 0.02 | 88 | 1011.1 |
| 20260510172028 | 57 | 253 | 1.0 | 5.0 | 0.01 | 0.39 | 0.02 | 87 | 1011.1 |
| 20260510171544 | 57 | 304 | 2.0 | 5.0 | 0.01 | 0.39 | 0.02 | 84 | 1010.7 |
| 20260510171030 | 58 | 290 | 2.0 | 8.0 | 0.01 | 0.39 | 0.02 | 85 | 1010.7 |
| 20260510170534 | 58 | 293 | 1.0 | 9.0 | 0.01 | 0.39 | 0.02 | 81 | 1010.9 |
| 20260510170042 | 59 | 284 | 4.0 | 9.0 | 0.00 | 0.38 | 0.01 | 76 | 1011.0 |
| 20260510165530 | 60 | 272 | 2.0 | 10.0 | 0.00 | 0.42 | 0.01 | 71 | 1010.6 |
| 20260510165029 | 60 | 252 | 4.0 | 12.0 | 0.00 | 0.42 | 0.01 | 74 | 1010.6 |
| 20260510164548 | 60 | 260 | 6.0 | 12.0 | 0.00 | 0.42 | 0.01 | 72 | 1010.7 |
| 20260510164029 | 60 | 172 | 4.0 | 11.0 | 0.00 | 0.42 | 0.01 | 73 | 1010.8 |
| 20260510163531 | 60 | 259 | 5.0 | 11.0 | 0.00 | 0.42 | 0.01 | 73 | 1010.7 |
| 20260510163044 | 59 | 201 | 5.0 | 9.0 | 0.00 | 0.42 | 0.01 | 74 | 1010.9 |
| 20260510162529 | 59 | 266 | 4.0 | 8.0 | 0.00 | 0.42 | 0.01 | 75 | 1010.9 |
| 20260510162031 | 59 | 217 | 2.0 | 7.0 | 0.00 | 0.42 | 0.01 | 76 | 1010.9 |
| 20260510161541 | 59 | 265 | 1.0 | 5.0 | 0.00 | 0.42 | 0.01 | 77 | 1010.9 |
| 20260510161029 | 59 | 259 | 2.0 | 10.0 | 0.00 | 0.42 | 0.01 | 76 | 1010.9 |
| 20260510160530 | 59 | 242 | 4.0 | 10.0 | 0.00 | 0.42 | 0.01 | 77 | 1010.9 |
| 20260510160040 | 59 | 303 | 0.0 | 4.0 | 0.00 | 0.42 | 0.01 | 78 | 1010.9 |
| 20260510155529 | 59 | 215 | 2.0 | 4.0 | 0.00 | 0.46 | 0.01 | 78 | 1010.9 |
| 20260510155029 | 59 | 180 | 0.0 | 3.0 | 0.00 | 0.46 | 0.01 | 80 | 1010.9 |
| 20260510154539 | 59 | 0 | 1.0 | 4.0 | 0.00 | 0.46 | 0.01 | 78 | 1010.8 |
| 20260510154030 | 59 | 139 | 2.0 | 4.0 | 0.00 | 0.46 | 0.01 | 78 | 1010.9 |
| 20260510153529 | 59 | 115 | 1.0 | 4.0 | 0.00 | 0.46 | 0.01 | 82 | 1010.8 |
| 20260510153054 | 58 | 333 | 1.0 | 4.0 | 0.00 | 0.46 | 0.01 | 83 | 1010.7 |
| 20260510152529 | 58 | 269 | 1.0 | 4.0 | 0.00 | 0.46 | 0.01 | 86 | 1010.8 |
| 20260510152028 | 57 | 260 | 1.0 | 4.0 | 0.00 | 0.46 | 0.01 | 86 | 1010.8 |
| 20260510151536 | 56 | 0 | 0.0 | 4.0 | 0.00 | 0.46 | 0.01 | 88 | 1010.7 |
| 20260510151029 | 56 | 236 | 1.0 | 4.0 | 0.00 | 0.46 | 0.01 | 89 | 1010.8 |
| 20260510150529 | 55 | 264 | 1.0 | 4.0 | 0.00 | 0.46 | 0.01 | 89 | 1010.8 |
| 20260510150046 | 55 | 342 | 0.0 | 3.0 | 0.00 | 0.46 | 0.01 | 92 | 1010.8 |
| 20260510145529 | 54 | 336 | 1.0 | 3.0 | 0.00 | 0.48 | 0.01 | 92 | 1010.8 |
| 20260510145029 | 53 | 279 | 1.0 | 4.0 | 0.00 | 0.48 | 0.01 | 92 | 1010.8 |
| 20260510144545 | 53 | 252 | 1.0 | 4.0 | 0.00 | 0.48 | 0.01 | 92 | 1010.8 |
| 20260510144028 | 53 | 242 | 0.0 | 5.0 | 0.00 | 0.48 | 0.01 | 95 | 1010.9 |
| 20260510143530 | 53 | 197 | 2.0 | 5.0 | 0.00 | 0.48 | 0.01 | 96 | 1010.9 |
| 20260510143041 | 53 | 0 | 1.0 | 5.0 | 0.00 | 0.48 | 0.01 | 97 | 1010.9 |
| 20260510142533 | 53 | 90 | 0.0 | 4.0 | 0.00 | 0.48 | 0.01 | 98 | 1010.9 |
| 20260510142034 | 52 | 0 | 1.0 | 4.0 | 0.00 | 0.48 | 0.01 | 98 | 1010.9 |
| 20260510141548 | 52 | 0 | 1.0 | 5.0 | 0.00 | 0.48 | 0.01 | 97 | 1010.9 |
| 20260510141034 | 52 | 175 | 3.0 | 5.0 | 0.00 | 0.48 | 0.01 | 98 | 1010.8 |
| 20260510140530 | 51 | 167 | 1.0 | 5.0 | 0.00 | 0.48 | 0.01 | 98 | 1011.0 |
| 20260510140035 | 51 | 146 | 1.0 | 5.0 | 0.00 | 0.48 | 0.01 | 98 | 1011.0 |
| 20260510135533 | 51 | 169 | 1.0 | 4.0 | 0.00 | 0.48 | 0.01 | 98 | 1011.0 |
| 20260510135030 | 50 | 0 | 0.0 | 4.0 | 0.00 | 0.48 | 0.01 | 98 | 1011.0 |
| 20260510134541 | 50 | 169 | 1.0 | 4.0 | 0.00 | 0.48 | 0.01 | 98 | 1011.0 |
| 20260510134030 | 50 | 63 | 0.0 | 4.0 | 0.00 | 0.48 | 0.01 | 98 | 1010.9 |
| 20260510133527 | 50 | 169 | 1.0 | 4.0 | 0.00 | 0.48 | 0.01 | 98 | 1010.9 |
| 20260510133041 | 50 | 0 | 0.0 | 6.0 | 0.00 | 0.48 | 0.01 | 98 | 1010.9 |
| 20260510132531 | 50 | 64 | 0.0 | 6.0 | 0.00 | 0.48 | 0.01 | 98 | 1010.7 |
| 20260510132031 | 50 | 54 | 0.0 | 5.0 | 0.00 | 0.48 | 0.01 | 98 | 1010.7 |
| 20260510131541 | 50 | 89 | 1.0 | 3.0 | 0.00 | 0.48 | 0.01 | 98 | 1010.6 |
| 20260510131029 | 49 | 0 | 0.0 | 3.0 | 0.00 | 0.48 | 0.01 | 98 | 1010.7 |
| 20260510130529 | 49 | 153 | 0.0 | 3.0 | 0.00 | 0.48 | 0.01 | 98 | 1010.8 |
| 20260510130039 | 49 | 80 | 0.0 | 2.0 | 0.00 | 0.48 | 0.01 | 98 | 1010.8 |
| 20260510125529 | 48 | 80 | 0.0 | 2.0 | 0.00 | 0.48 | 0.01 | 98 | 1010.9 |
| 20260510125030 | 48 | 0 | 0.0 | 2.0 | 0.00 | 0.48 | 0.01 | 98 | 1010.9 |
| 20260510124536 | 47 | 0 | 0.0 | 2.0 | 0.00 | 0.48 | 0.01 | 98 | 1010.9 |
| 20260510124034 | 47 | 106 | 0.0 | 2.0 | 0.00 | 0.48 | 0.01 | 98 | 1010.8 |
| 20260510123530 | 47 | 104 | 0.0 | 3.0 | 0.00 | 0.48 | 0.01 | 98 | 1011.0 |
| 20260510123042 | 46 | 0 | 0.0 | 3.0 | 0.00 | 0.48 | 0.01 | 98 | 1010.9 |
| 20260510122529 | 46 | 65 | 0.0 | 3.0 | 0.00 | 0.48 | 0.01 | 98 | 1010.9 |
| 20260510122031 | 46 | 63 | 0.0 | 0.0 | 0.00 | 0.48 | 0.01 | 97 | 1010.9 |
| 20260510121541 | 46 | 0 | 0.0 | 0.0 | 0.00 | 0.48 | 0.01 | 98 | 1011.0 |
| 20260510121029 | 45 | 0 | 0.0 | 0.0 | 0.00 | 0.48 | 0.01 | 97 | 1011.0 |
| 20260510120529 | 45 | 0 | 0.0 | 3.0 | 0.00 | 0.48 | 0.01 | 97 | 1010.9 |
| 20260510120040 | 45 | 0 | 0.0 | 3.0 | 0.00 | 0.48 | 0.01 | 97 | 1010.9 |
| 20260510115531 | 45 | 0 | 0.0 | 3.0 | 0.00 | 0.48 | 0.01 | 97 | 1010.7 |
| 20260510115029 | 45 | 130 | 0.0 | 1.0 | 0.00 | 0.48 | 0.01 | 97 | 1010.6 |
| 20260510114538 | 45 | 0 | 0.0 | 2.0 | 0.00 | 0.48 | 0.01 | 98 | 1010.8 |
| 20260510114029 | 45 | 0 | 0.0 | 2.0 | 0.00 | 0.48 | 0.01 | 98 | 1010.7 |
| 20260510113530 | 45 | 86 | 0.0 | 1.0 | 0.00 | 0.48 | 0.01 | 98 | 1010.8 |
| 20260510113044 | 45 | 0 | 0.0 | 2.0 | 0.00 | 0.48 | 0.01 | 98 | 1010.9 |
| 20260510112711 | 45 | 0 | 0.0 | 3.0 | 0.00 | 0.48 | 0.01 | 98 | 1011.0 |
| 20260510112028 | 45 | 90 | 0.0 | 3.0 | 0.00 | 0.48 | 0.01 | 97 | 1010.9 |
| 20260510111542 | 44 | 90 | 1.0 | 2.0 | 0.00 | 0.48 | 0.01 | 97 | 1010.9 |
| 20260510111029 | 44 | 0 | 0.0 | 2.0 | 0.00 | 0.48 | 0.01 | 97 | 1010.7 |
| 20260510110531 | 44 | 0 | 0.0 | 2.0 | 0.00 | 0.48 | 0.01 | 97 | 1010.4 |
| 20260510110042 | 44 | 0 | 0.0 | 2.0 | 0.00 | 0.48 | 0.01 | 98 | 1010.3 |
| 20260510105527 | 44 | 92 | 0.0 | 2.0 | 0.00 | 0.48 | 0.01 | 98 | 1010.2 |
| 20260510105028 | 44 | 92 | 0.0 | 3.0 | 0.00 | 0.48 | 0.01 | 97 | 1010.2 |
| 20260510104542 | 44 | 83 | 0.0 | 3.0 | 0.00 | 0.48 | 0.01 | 98 | 1010.0 |
| 20260510104030 | 44 | 0 | 0.0 | 6.0 | 0.00 | 0.48 | 0.01 | 98 | 1010.0 |
| 20260510103529 | 44 | 132 | 0.0 | 6.0 | 0.00 | 0.48 | 0.01 | 97 | 1009.9 |
| 20260510103035 | 44 | 144 | 1.0 | 6.0 | 0.00 | 0.48 | 0.01 | 97 | 1009.9 |
| 20260510102530 | 44 | 118 | 1.0 | 7.0 | 0.00 | 0.48 | 0.01 | 97 | 1009.8 |
| 20260510102033 | 43 | 130 | 1.0 | 7.0 | 0.00 | 0.48 | 0.01 | 97 | 1009.4 |
| 20260510101535 | 43 | 117 | 1.0 | 4.0 | 0.00 | 0.48 | 0.01 | 97 | 1009.1 |
| 20260510101032 | 43 | 67 | 2.0 | 4.0 | 0.00 | 0.48 | 0.01 | 97 | 1009.2 |
| 20260510100534 | 43 | 66 | 2.0 | 4.0 | 0.00 | 0.48 | 0.01 | 97 | 1009.3 |
| 20260510095530 | 43 | 9 | 1.0 | 3.0 | 0.00 | 0.48 | 0.01 | 97 | 1009.4 |
| 20260510095032 | 43 | 0 | 1.0 | 3.0 | 0.00 | 0.48 | 0.01 | 97 | 1009.4 |
| 20260510094552 | 43 | 54 | 0.0 | 3.0 | 0.00 | 0.48 | 0.01 | 97 | 1009.4 |
| 20260510094029 | 43 | 0 | 0.0 | 2.0 | 0.00 | 0.48 | 0.01 | 97 | 1009.1 |
| 20260510093531 | 43 | 0 | 0.0 | 2.0 | 0.00 | 0.48 | 0.01 | 97 | 1009.1 |
| 20260510093038 | 43 | 0 | 0.0 | 1.0 | 0.00 | 0.48 | 0.01 | 97 | 1009.0 |
| 20260510092531 | 43 | 0 | 0.0 | 1.0 | 0.00 | 0.48 | 0.01 | 97 | 1009.2 |
| 20260510092029 | 43 | 0 | 0.0 | 2.0 | 0.00 | 0.48 | 0.01 | 97 | 1009.3 |
| 20260510091534 | 43 | 0 | 0.0 | 2.0 | 0.00 | 0.48 | 0.01 | 97 | 1009.3 |
| 20260510091029 | 43 | 0 | 0.0 | 2.0 | 0.00 | 0.48 | 0.01 | 97 | 1009.3 |
| 20260510090530 | 43 | 0 | 0.0 | 3.0 | 0.00 | 0.48 | 0.01 | 97 | 1009.1 |
| 20260510090051 | 43 | 0 | 0.0 | 3.0 | 0.00 | 0.48 | 0.01 | 97 | 1009.3 |
| 20260510085529 | 43 | 0 | 0.0 | 0.0 | 0.00 | 0.48 | 0.01 | 97 | 1009.5 |
| 20260510085032 | 43 | 0 | 0.0 | 0.0 | 0.00 | 0.48 | 0.01 | 97 | 1009.5 |
| 20260510084603 | 43 | 0 | 0.0 | 0.0 | 0.00 | 0.48 | 0.01 | 97 | 1009.6 |
| 20260510084033 | 43 | 0 | 0.0 | 0.0 | 0.00 | 0.48 | 0.01 | 97 | 1009.5 |
| 20260510083530 | 43 | 0 | 0.0 | 0.0 | 0.00 | 0.48 | 0.01 | 97 | 1009.3 |
| 20260510083039 | 43 | 0 | 0.0 | 0.0 | 0.00 | 0.48 | 0.01 | 97 | 1009.4 |
| 20260510082529 | 43 | 0 | 0.0 | 0.0 | 0.00 | 0.48 | 0.01 | 97 | 1009.5 |
| 20260510082029 | 43 | 0 | 0.0 | 0.0 | 0.00 | 0.48 | 0.01 | 97 | 1009.6 |
| 20260510081549 | 43 | 0 | 0.0 | 0.0 | 0.00 | 0.48 | 0.01 | 97 | 1009.6 |
| 20260510081029 | 43 | 0 | 0.0 | 0.0 | 0.00 | 0.48 | 0.01 | 97 | 1009.6 |
| 20260510080528 | 43 | 0 | 0.0 | 0.0 | 0.00 | 0.48 | 0.01 | 97 | 1009.7 |
| 20260510080038 | 43 | 0 | 0.0 | 0.0 | 0.00 | 0.48 | 0.01 | 97 | 1009.7 |
| 20260510075530 | 43 | 0 | 0.0 | 0.0 | 0.00 | 0.48 | 0.01 | 97 | 1009.6 |
| 20260510075030 | 43 | 0 | 0.0 | 0.0 | 0.00 | 0.48 | 0.01 | 97 | 1009.4 |
| 20260510074553 | 42 | 0 | 0.0 | 0.0 | 0.00 | 0.48 | 0.01 | 97 | 1009.6 |
| 20260510074029 | 42 | 0 | 0.0 | 2.0 | 0.00 | 0.48 | 0.01 | 97 | 1009.6 |
| 20260510073530 | 42 | 0 | 0.0 | 2.0 | 0.00 | 0.48 | 0.01 | 97 | 1009.5 |
| 20260510073044 | 42 | 39 | 0.0 | 1.0 | 0.01 | 0.48 | 0.01 | 97 | 1009.6 |
| 20260510072530 | 42 | 0 | 0.0 | 2.0 | 0.01 | 0.48 | 0.01 | 97 | 1009.4 |
| 20260510072031 | 42 | 39 | 0.0 | 4.0 | 0.01 | 0.48 | 0.01 | 97 | 1009.4 |
| 20260510071545 | 42 | 39 | 1.0 | 4.0 | 0.01 | 0.48 | 0.01 | 97 | 1009.4 |
| 20260510071029 | 42 | 53 | 1.0 | 4.0 | 0.01 | 0.48 | 0.01 | 97 | 1009.5 |
| 20260510070530 | 42 | 101 | 0.0 | 2.0 | 0.01 | 0.48 | 0.01 | 97 | 1009.7 |
| 20260510070045 | 42 | 100 | 0.0 | 2.0 | 0.01 | 0.48 | 0.01 | 97 | 1009.6 |
| 20260510065527 | 42 | 100 | 0.0 | 2.0 | 0.01 | 0.48 | 0.01 | 97 | 1009.7 |
| 20260510065030 | 42 | 0 | 0.0 | 2.0 | 0.01 | 0.48 | 0.01 | 97 | 1009.8 |
| 20260510064538 | 42 | 0 | 0.0 | 0.0 | 0.01 | 0.48 | 0.01 | 97 | 1009.9 |
| 20260510064030 | 42 | 0 | 0.0 | 1.0 | 0.01 | 0.48 | 0.01 | 97 | 1010.0 |
| 20260510063530 | 42 | 0 | 0.0 | 1.0 | 0.00 | 0.47 | 0.00 | 97 | 1010.0 |
| 20260510063048 | 42 | 0 | 0.0 | 2.0 | 0.00 | 0.47 | 0.00 | 97 | 1010.0 |
| 20260510062530 | 42 | 0 | 0.0 | 2.0 | 0.00 | 0.47 | 0.00 | 97 | 1009.9 |
| 20260510062034 | 42 | 0 | 0.0 | 1.0 | 0.00 | 0.47 | 0.00 | 97 | 1009.8 |
| 20260510061543 | 42 | 0 | 0.0 | 1.0 | 0.00 | 0.47 | 0.00 | 97 | 1009.8 |
| 20260510061033 | 42 | 0 | 0.0 | 1.0 | 0.00 | 0.47 | 0.00 | 97 | 1009.8 |
| 20260510060529 | 42 | 0 | 0.0 | 1.0 | 0.00 | 0.47 | 0.00 | 97 | 1009.7 |
| 20260510060039 | 42 | 0 | 0.0 | 2.0 | 0.00 | 0.47 | 0.00 | 97 | 1009.8 |
| 20260510055531 | 42 | 0 | 0.0 | 2.0 | 0.00 | 0.47 | 0.00 | 97 | 1009.8 |
| 20260510055029 | 42 | 78 | 1.0 | 2.0 | 0.00 | 0.47 | 0.00 | 97 | 1009.9 |
| 20260510054540 | 42 | 71 | 0.0 | 2.0 | 0.00 | 0.47 | 0.00 | 97 | 1009.8 |
| 20260510054029 | 42 | 0 | 0.0 | 2.0 | 0.00 | 0.47 | 0.00 | 97 | 1009.7 |
| 20260510053530 | 42 | 71 | 0.0 | 2.0 | 0.00 | 0.47 | 0.00 | 97 | 1009.7 |
| 20260510053040 | 42 | 0 | 0.0 | 2.0 | 0.00 | 0.47 | 0.00 | 97 | 1009.9 |
| 20260510052529 | 42 | 71 | 0.0 | 1.0 | 0.00 | 0.47 | 0.00 | 97 | 1009.8 |
| 20260510052030 | 42 | 0 | 0.0 | 1.0 | 0.00 | 0.47 | 0.00 | 97 | 1009.9 |
| 20260510051547 | 42 | 0 | 0.0 | 4.0 | 0.00 | 0.47 | 0.00 | 97 | 1009.9 |
| 20260510051029 | 42 | 0 | 1.0 | 4.0 | 0.00 | 0.47 | 0.00 | 97 | 1010.0 |
| 20260510050529 | 42 | 60 | 1.0 | 3.0 | 0.00 | 0.47 | 0.00 | 97 | 1010.1 |
| 20260510050044 | 42 | 46 | 0.0 | 0.0 | 0.00 | 0.47 | 0.00 | 97 | 1010.2 |
| 20260510045529 | 42 | 0 | 0.0 | 0.0 | 0.00 | 0.47 | 0.00 | 97 | 1010.2 |
| 20260510045030 | 42 | 0 | 0.0 | 0.0 | 0.00 | 0.47 | 0.00 | 97 | 1010.2 |
| 20260510044538 | 42 | 0 | 0.0 | 0.0 | 0.00 | 0.47 | 0.00 | 97 | 1010.1 |
| 20260510044029 | 42 | 0 | 0.0 | 0.0 | 0.00 | 0.47 | 0.00 | 97 | 1010.2 |
| 20260510043533 | 42 | 0 | 0.0 | 3.0 | 0.00 | 0.47 | 0.00 | 97 | 1010.2 |
| 20260510043043 | 42 | 0 | 0.0 | 3.0 | 0.00 | 0.47 | 0.00 | 97 | 1010.2 |
| 20260510042532 | 42 | 53 | 0.0 | 3.0 | 0.00 | 0.47 | 0.00 | 97 | 1010.3 |
| 20260510042029 | 42 | 0 | 0.0 | 3.0 | 0.00 | 0.47 | 0.00 | 97 | 1010.3 |
| 20260510041533 | 42 | 0 | 1.0 | 3.0 | 0.00 | 0.47 | 0.00 | 97 | 1010.3 |
| 20260510041030 | 42 | 153 | 1.0 | 3.0 | 0.00 | 0.47 | 0.00 | 97 | 1010.3 |
| 20260510040529 | 42 | 0 | 0.0 | 2.0 | 0.00 | 0.47 | 0.00 | 97 | 1010.3 |
| 20260510040056 | 42 | 30 | 0.0 | 2.0 | 0.00 | 0.47 | 0.00 | 97 | 1010.2 |
| 20260510035529 | 42 | 23 | 0.0 | 2.0 | 0.00 | 0.47 | 0.47 | 97 | 1010.3 |
| 20260510035030 | 42 | 23 | 0.0 | 2.0 | 0.00 | 0.47 | 0.47 | 97 | 1010.3 |
| 20260510034546 | 42 | 0 | 0.0 | 3.0 | 0.00 | 0.47 | 0.47 | 97 | 1010.3 |
| 20260510034029 | 42 | 0 | 1.0 | 5.0 | 0.00 | 0.47 | 0.47 | 97 | 1010.3 |
| 20260510033529 | 42 | 31 | 0.0 | 5.0 | 0.00 | 0.47 | 0.47 | 97 | 1010.1 |
| 20260510033048 | 42 | 138 | 1.0 | 4.0 | 0.00 | 0.47 | 0.47 | 97 | 1010.4 |
| 20260510032529 | 42 | 0 | 0.0 | 3.0 | 0.00 | 0.47 | 0.47 | 97 | 1010.3 |
| 20260510032029 | 42 | 30 | 1.0 | 3.0 | 0.00 | 0.47 | 0.47 | 97 | 1010.3 |
| 20260510031540 | 42 | 0 | 1.0 | 3.0 | 0.00 | 0.47 | 0.47 | 97 | 1010.5 |
| 20260510031031 | 42 | 207 | 0.0 | 2.0 | 0.00 | 0.47 | 0.47 | 97 | 1010.6 |
| 20260510030529 | 42 | 0 | 0.0 | 2.0 | 0.00 | 0.47 | 0.47 | 97 | 1010.6 |
| 20260510030047 | 42 | 0 | 0.0 | 2.0 | 0.00 | 0.47 | 0.47 | 97 | 1010.6 |
| 20260510025533 | 42 | 0 | 0.0 | 2.0 | 0.00 | 0.47 | 0.47 | 97 | 1010.7 |
| 20260510025029 | 42 | 84 | 0.0 | 3.0 | 0.00 | 0.47 | 0.47 | 97 | 1010.9 |
| 20260510024545 | 42 | 0 | 0.0 | 3.0 | 0.00 | 0.47 | 0.47 | 97 | 1011.0 |
| 20260510024029 | 42 | 0 | 0.0 | 2.0 | 0.00 | 0.47 | 0.47 | 97 | 1010.8 |
| 20260510023531 | 42 | 161 | 0.0 | 2.0 | 0.00 | 0.47 | 0.47 | 97 | 1010.9 |
| 20260510023039 | 42 | 0 | 0.0 | 2.0 | 0.00 | 0.47 | 0.47 | 97 | 1010.8 |
| 20260510022529 | 42 | 154 | 0.0 | 3.0 | 0.00 | 0.47 | 0.47 | 96 | 1010.8 |
| 20260510022030 | 42 | 0 | 0.0 | 3.0 | 0.00 | 0.47 | 0.47 | 97 | 1010.7 |
| 20260510021540 | 42 | 165 | 0.0 | 4.0 | 0.00 | 0.47 | 0.47 | 97 | 1010.9 |
| 20260510021029 | 42 | 166 | 1.0 | 4.0 | 0.00 | 0.47 | 0.47 | 96 | 1011.0 |
| 20260510020530 | 42 | 0 | 0.0 | 5.0 | 0.00 | 0.47 | 0.47 | 96 | 1011.0 |
| 20260510020045 | 42 | 17 | 0.0 | 5.0 | 0.00 | 0.47 | 0.47 | 96 | 1011.1 |
| 20260510015530 | 42 | 0 | 0.0 | 4.0 | 0.00 | 0.47 | 0.47 | 96 | 1011.1 |
| 20260510015029 | 42 | 0 | 0.0 | 3.0 | 0.00 | 0.47 | 0.47 | 96 | 1011.0 |
| 20260510014543 | 42 | 0 | 0.0 | 3.0 | 0.00 | 0.47 | 0.47 | 96 | 1010.9 |
| 20260510014029 | 42 | 0 | 0.0 | 3.0 | 0.00 | 0.47 | 0.47 | 96 | 1010.9 |
| 20260510013530 | 42 | 360 | 0.0 | 2.0 | 0.00 | 0.47 | 0.47 | 96 | 1011.0 |
| 20260510013044 | 42 | 22 | 0.0 | 2.0 | 0.00 | 0.47 | 0.47 | 96 | 1011.1 |
| 20260510012528 | 42 | 0 | 0.0 | 3.0 | 0.00 | 0.47 | 0.47 | 96 | 1011.1 |
| 20260510012033 | 42 | 143 | 0.0 | 4.0 | 0.00 | 0.47 | 0.47 | 96 | 1011.1 |
| 20260510011542 | 42 | 0 | 0.0 | 4.0 | 0.00 | 0.47 | 0.47 | 96 | 1011.2 |
| 20260510011030 | 42 | 0 | 0.0 | 4.0 | 0.00 | 0.47 | 0.47 | 96 | 1011.3 |
| 20260510010532 | 42 | 146 | 0.0 | 4.0 | 0.00 | 0.47 | 0.47 | 96 | 1011.2 |
| 20260510010041 | 42 | 69 | 0.0 | 4.0 | 0.00 | 0.47 | 0.47 | 96 | 1011.3 |
| 20260510005529 | 42 | 0 | 0.0 | 4.0 | 0.00 | 0.47 | 0.47 | 96 | 1011.1 |
| 20260510005030 | 42 | 89 | 1.0 | 5.0 | 0.00 | 0.47 | 0.47 | 96 | 1011.0 |
| 20260510004540 | 42 | 146 | 0.0 | 5.0 | 0.00 | 0.47 | 0.47 | 96 | 1011.0 |
| 20260510004029 | 42 | 165 | 0.0 | 3.0 | 0.00 | 0.47 | 0.47 | 96 | 1010.9 |
| 20260510003530 | 42 | 0 | 0.0 | 4.0 | 0.00 | 0.47 | 0.47 | 96 | 1010.8 |
| 20260510003039 | 42 | 53 | 0.0 | 4.0 | 0.00 | 0.47 | 0.47 | 96 | 1010.8 |
| 20260510002529 | 42 | 88 | 0.0 | 3.0 | 0.00 | 0.47 | 0.47 | 96 | 1010.8 |
| 20260510002028 | 42 | 47 | 1.0 | 4.0 | 0.00 | 0.47 | 0.47 | 96 | 1010.7 |
| 20260510001545 | 42 | 225 | 1.0 | 7.0 | 0.00 | 0.47 | 0.47 | 96 | 1010.7 |
| 20260510001032 | 42 | 167 | 1.0 | 8.0 | 0.00 | 0.47 | 0.47 | 96 | 1010.6 |
| 20260510000528 | 42 | 83 | 1.0 | 9.0 | 0.00 | 0.47 | 0.47 | 96 | 1010.5 |
| 20260510000059 | 42 | 138 | 1.0 | 9.0 | 0.00 | 0.47 | 0.47 | 96 | 1010.5 |
| 20260509235533 | 42 | 0 | 2.0 | 8.0 | 0.00 | 0.47 | 0.47 | 96 | 1010.3 |
| 20260509235030 | 42 | 59 | 1.0 | 6.0 | 0.00 | 0.47 | 0.47 | 96 | 1010.2 |
| 20260509234553 | 42 | 146 | 2.0 | 8.0 | 0.00 | 0.47 | 0.47 | 96 | 1010.2 |
| 20260509234029 | 42 | 172 | 2.0 | 11.0 | 0.00 | 0.47 | 0.47 | 96 | 1010.3 |
| 20260509233533 | 42 | 149 | 3.0 | 11.0 | 0.00 | 0.47 | 0.47 | 96 | 1010.4 |
| 20260509233046 | 42 | 150 | 1.0 | 5.0 | 0.00 | 0.47 | 0.47 | 96 | 1010.4 |
| 20260509232533 | 42 | 136 | 0.0 | 4.0 | 0.00 | 0.47 | 0.47 | 96 | 1010.4 |
| 20260509232029 | 42 | 123 | 1.0 | 4.0 | 0.00 | 0.47 | 0.47 | 96 | 1010.3 |
| 20260509231540 | 42 | 133 | 0.0 | 3.0 | 0.00 | 0.47 | 0.47 | 96 | 1010.2 |
| 20260509231029 | 42 | 171 | 0.0 | 5.0 | 0.00 | 0.47 | 0.47 | 96 | 1010.2 |
| 20260509230533 | 42 | 175 | 1.0 | 7.0 | 0.01 | 0.47 | 0.47 | 96 | 1010.2 |
| 20260509230038 | 42 | 146 | 2.0 | 9.0 | 0.01 | 0.47 | 0.47 | 95 | 1010.3 |
| 20260509225532 | 42 | 123 | 1.0 | 9.0 | 0.01 | 0.47 | 0.47 | 95 | 1010.3 |
| 20260509225030 | 42 | 122 | 1.0 | 7.0 | 0.01 | 0.47 | 0.47 | 95 | 1010.4 |
| 20260509224538 | 42 | 130 | 2.0 | 6.0 | 0.01 | 0.47 | 0.47 | 95 | 1010.3 |
| 20260509224029 | 42 | 170 | 1.0 | 8.0 | 0.01 | 0.47 | 0.47 | 95 | 1010.4 |
| 20260509223531 | 42 | 145 | 1.0 | 8.0 | 0.01 | 0.47 | 0.47 | 95 | 1010.4 |
| 20260509223043 | 42 | 96 | 1.0 | 7.0 | 0.01 | 0.47 | 0.47 | 95 | 1010.3 |
| 20260509222530 | 42 | 123 | 2.0 | 7.0 | 0.01 | 0.47 | 0.47 | 95 | 1010.4 |
| 20260509222035 | 42 | 140 | 1.0 | 7.0 | 0.02 | 0.47 | 0.47 | 95 | 1010.4 |
| 20260509221542 | 42 | 139 | 2.0 | 9.0 | 0.02 | 0.47 | 0.47 | 95 | 1010.4 |
| 20260509221030 | 42 | 159 | 2.0 | 9.0 | 0.02 | 0.47 | 0.47 | 95 | 1010.5 |
| 20260509220530 | 42 | 103 | 0.0 | 4.0 | 0.02 | 0.46 | 0.46 | 95 | 1010.5 |
| 20260509220039 | 42 | 129 | 1.0 | 6.0 | 0.02 | 0.46 | 0.46 | 95 | 1010.7 |
| 20260509215531 | 43 | 235 | 1.0 | 7.0 | 0.03 | 0.46 | 0.46 | 95 | 1010.5 |
| 20260509215031 | 43 | 101 | 2.0 | 7.0 | 0.03 | 0.46 | 0.46 | 95 | 1010.5 |
| 20260509214540 | 42 | 145 | 2.0 | 10.0 | 0.04 | 0.46 | 0.46 | 95 | 1010.7 |
| 20260509214027 | 43 | 143 | 3.0 | 10.0 | 0.04 | 0.46 | 0.46 | 95 | 1010.6 |
| 20260509213531 | 43 | 161 | 1.0 | 8.0 | 0.05 | 0.46 | 0.46 | 95 | 1010.7 |
| 20260509213041 | 43 | 169 | 2.0 | 8.0 | 0.06 | 0.46 | 0.46 | 95 | 1010.7 |
| 20260509212527 | 43 | 128 | 2.0 | 11.0 | 0.07 | 0.46 | 0.46 | 95 | 1010.7 |
| 20260509212031 | 43 | 173 | 3.0 | 11.0 | 0.06 | 0.45 | 0.45 | 95 | 1010.8 |
| 20260509211534 | 43 | 153 | 4.0 | 8.0 | 0.07 | 0.45 | 0.45 | 95 | 1010.8 |
| 20260509211030 | 43 | 126 | 2.0 | 7.0 | 0.08 | 0.45 | 0.45 | 95 | 1010.7 |
| 20260509210531 | 43 | 120 | 2.0 | 10.0 | 0.07 | 0.44 | 0.44 | 95 | 1010.6 |
| 20260509210041 | 43 | 123 | 4.0 | 10.0 | 0.08 | 0.44 | 0.44 | 95 | 1010.7 |
| 20260509205530 | 43 | 100 | 3.0 | 8.0 | 0.08 | 0.43 | 0.43 | 95 | 1010.8 |
| 20260509205027 | 43 | 125 | 3.0 | 7.0 | 0.08 | 0.43 | 0.43 | 95 | 1010.7 |
| 20260509204550 | 43 | 82 | 1.0 | 7.0 | 0.08 | 0.42 | 0.42 | 95 | 1010.7 |
| 20260509204028 | 43 | 0 | 2.0 | 7.0 | 0.09 | 0.42 | 0.42 | 95 | 1010.6 |
| 20260509203529 | 42 | 0 | 2.0 | 8.0 | 0.09 | 0.41 | 0.41 | 95 | 1010.6 |
| 20260509203040 | 42 | 126 | 2.0 | 8.0 | 0.08 | 0.40 | 0.40 | 95 | 1010.9 |
| 20260509202529 | 42 | 170 | 3.0 | 8.0 | 0.08 | 0.39 | 0.39 | 95 | 1010.9 |
| 20260509202027 | 42 | 106 | 2.0 | 11.0 | 0.09 | 0.39 | 0.39 | 95 | 1011.1 |
| 20260509201540 | 43 | 132 | 3.0 | 11.0 | 0.08 | 0.38 | 0.38 | 95 | 1010.9 |
| 20260509201032 | 42 | 114 | 2.0 | 7.0 | 0.07 | 0.37 | 0.37 | 95 | 1011.1 |
| 20260509200532 | 42 | 144 | 3.0 | 7.0 | 0.08 | 0.37 | 0.37 | 95 | 1011.1 |